Location: Central Falls
(41.8900°N, 71.3929°W)
Time: 04:10:16
(UTC+00:00)

Vanguard 2 Rocket - Pass Details

Date: 11 December 2023
Orbit: 555 x 3309 km, 32.9° (Epoch: 01 March)

Event Time Altitude Azimuth Distance (km) Brightness Sun altitude
Rises 20:02:52 0° 263° (W) 6,066 12.1 9.8°
Reaches altitude 10° 20:06:25 10° 260° (W) 5,344 11.9 9.3°
Maximum altitude 20:23:31 64° 185° (S) 3,489 10.3 6.9°
Drops below altitude 10° 20:43:02 10° 110° (ESE) 5,986 10.8 4.0°
Sets 20:47:18 0° 107° (ESE) 6,796 11.0 3.4°
